sat.trackr.live / text

‹ back to catalog

STARLINK-32407

NORAD 62172 · 2024-225K

PAYLOAD ACTIVE UNKNOWN

§ Identity

Operator
Country
US
Launch date
2024-11-30
Launch site
AFWTR
Launch vehicle
Mass (kg)
RCS (m²)

Purposes: comms

External: N2YO · Heavens-Above · Gunter

§ Orbital elements

Epoch: 2026-09-21T17:55:41.639808Z

Period
96.11 min
Inclination
70.0013°
Eccentricity
0.0003076
Mean motion
14.98335582 rev/d
Perigee alt
569.9 km
Apogee alt
574.2 km
Semi-major
6,950.2 km
B*
3.7988e-5
RAAN
30.0736°
Arg perigee
268.9784°
Mean anomaly
91.1023°
Rev number
9,924

§ Raw data

STARLINK-324071 62172U 24225K   26264.74700972  .00000360  00000+0  37988-4 0  99962 62172  70.0013  30.0736 0003076 268.9784  91.1023 14.98335582 99248

JSON: /api/v1/satellites/62172 · /tle

For live sub-satellite position, see the globe view (requires WebGL).

§ Visibility from observer

Set your observer location to see the next 7 days of passes ≥ 10°. The values pass through the URL so the page stays shareable.

No JS? Fill the form by hand. The geolocation button needs JavaScript.